TimeMDT,TemperatureF,Dew PointF,Humidity,Sea Level PressureIn,VisibilityMPH,Wind Direction,Wind SpeedMPH,Gust SpeedMPH,PrecipitationIn,Events,Conditions,WindDirDegrees,DateUTC
12:53 AM,42.1,35.1,76,29.94,10.0,ENE,6.9,-,N/A,,Clear,70,2011-10-17 06:53:00
1:53 AM,42.1,35.1,76,29.92,10.0,East,6.9,-,N/A,,Clear,80,2011-10-17 07:53:00
2:53 AM,41.0,34.0,76,29.91,10.0,ENE,8.1,-,N/A,,Clear,70,2011-10-17 08:53:00
4:53 AM,37.9,33.1,83,29.88,10.0,East,8.1,-,N/A,,Clear,100,2011-10-17 10:53:00
5:53 AM,37.0,32.0,82,29.90,10.0,NE,5.8,-,N/A,,Clear,40,2011-10-17 11:53:00
6:53 AM,35.1,32.0,89,29.90,10.0,East,6.9,-,N/A,,Clear,80,2011-10-17 12:53:00
8:53 AM,46.9,34.0,61,29.88,10.0,South,12.7,16.1,N/A,,Clear,170,2011-10-17 14:53:00
9:53 AM,51.1,35.1,54,29.90,10.0,SW,6.9,-,N/A,,Clear,220,2011-10-17 15:53:00
10:53 AM,55.9,35.1,45,29.87,10.0,Variable,4.6,-,N/A,,Clear,0,2011-10-17 16:53:00
11:30 AM,55.4,35.6,47,29.98,10.0,NW,18.4,23.0,N/A,,Clear,310,2011-10-17 17:30:00
1:53 PM,53.1,46.9,80,29.97,10.0,North,17.3,25.3,0.00,Rain,Light Rain,360,2011-10-17 19:53:00
2:29 PM,51.8,44.6,76,30.03,10.0,NNW,33.4,42.6,0.01,Rain,Light Rain,340,2011-10-17 20:29:00
2:39 PM,53.6,44.6,72,30.04,10.0,North,23.0,41.4,0.01,,Scattered Clouds,350,2011-10-17 20:39:00
2:53 PM,52.0,44.1,74,30.03,10.0,North,31.1,36.8,0.01,,Mostly Cloudy,350,2011-10-17 20:53:00
3:53 PM,52.0,39.0,61,30.07,10.0,North,28.8,39.1,N/A,,Mostly Cloudy,360,2011-10-17 21:53:00
4:14 PM,51.8,37.4,58,30.11,10.0,North,26.5,46.0,N/A,,Overcast,350,2011-10-17 22:14:00
4:53 PM,50.0,37.0,61,30.11,10.0,North,28.8,41.4,N/A,,Mostly Cloudy,350,2011-10-17 22:53:00
6:53 PM,45.0,35.1,68,30.22,10.0,North,19.6,25.3,N/A,,Clear,10,2011-10-18 00:53:00
7:53 PM,44.1,35.1,71,30.24,10.0,North,13.8,-,N/A,,Partly Cloudy,360,2011-10-18 01:53:00
8:20 PM,44.6,35.6,71,30.23,10.0,North,16.1,-,N/A,,Scattered Clouds,10,2011-10-18 02:20:00
8:53 PM,43.0,35.1,74,30.20,10.0,NNE,21.9,27.6,N/A,,Partly Cloudy,20,2011-10-18 02:53:00
9:53 PM,41.0,35.1,79,30.25,10.0,WSW,8.1,-,N/A,,Scattered Clouds,250,2011-10-18 03:53:00
10:04 PM,42.8,35.6,76,30.26,10.0,Calm,Calm,-,N/A,,Mostly Cloudy,0,2011-10-18 04:04:00
10:15 PM,42.8,35.6,76,30.26,10.0,North,5.8,-,N/A,,Mostly Cloudy,350,2011-10-18 04:15:00
10:53 PM,42.1,35.1,76,30.23,10.0,NW,9.2,-,N/A,,Scattered Clouds,310,2011-10-18 04:53:00
11:53 PM,35.1,32.0,89,30.23,10.0,West,9.2,-,N/A,,Clear,260,2011-10-18 05:53:00